Location: Unspecified
(51.5147°N, 7.4673°E)
Time: 08:15:31
(UTC+01:00)

Explorer 7 - Pass Details

Date: 18 February 2026
Orbit: 430 x 542 km, 50.2° (Epoch: 7 March)

Event Time Altitude Azimuth Distance (km) Brightness Sun altitude
Rises 19:05:14 0° 275° (W) 2,501 12.2 -12.2°
Reaches altitude 10° 19:07:21 10° 273° (W) 1,644 10.8 -12.5°
Maximum altitude 19:11:02 64° 191° (S) 544 6.8 -13.1°
Enters shadow 19:13:30 21° 114° (ESE) 1,181 8.0 -13.5°
Drops below altitude 10° 19:14:53 10° 110° (ESE) 1,712 - -13.7°
Sets 19:17:07 0° 107° (ESE) 2,616 - -14.1°
